Awendaw, SC

7:37 PM EDT on August 25, 2016 (GMT -0400)
Mount Pleasant

Weather History for KLRO - January, 2014

Change the Weather History Date:

Friday, January 24, 2014

  Actual Average (KCHS) Record (KCHS)
Temperature  
Mean Temperature - 48 °F  
Max Temperature - 59 °F 79 °F (1950)
Min Temperature - 38 °F 17 °F (2003)
Degree Days  
Heating Degree Days 17  
Month to date heating degree days 408  
Since 1 July heating degree days 1146  
Cooling Degree Days 0  
Month to date cooling degree days 0  
Year to date cooling degree days 0  
Moisture  
Dew Point -    
Average Humidity    
Maximum Humidity    
Minimum Humidity    
Precipitation  
Precipitation 0.00 in 0.13 in 2.12 in (1958)
Month to date precipitation 2.88  
Year to date precipitation 2.88  
Sea Level Pressure  
Sea Level Pressure 30.46 in    
Wind  
Wind Speed 6 mph (NNW)    
Max Wind Speed 14 mph    
Max Gust Speed 22 mph    
Visibility 10 miles    
Events Rain    
T = Trace of Precipitation, MM = Missing Value Source: NWS Daily Summary

Daily Weather History Graph

Daily Weather History Graph

Search for Another Location

Airport or City:

Trip Planner

Search our weather history database for the weather conditions in past years. The results will help you decide how hot, cold, wet, or windy it might be!

Date:

Astronomy

Jan. 24, 2014 Rise Set
Actual Time 7:18 AM EST 5:43 PM EST
Civil Twilight 6:52 AM EST 6:10 PM EST
Nautical Twilight 6:22 AM EST 6:40 PM EST
Astronomical Twilight 5:53 AM EST 7:09 PM EST
Moon 12:48 AM EST (1/24) 11:58 AM EST (1/24)
Length of Visible Light 11h 17m
Length of Day
10h 25m
Last Quarter, 45% of the Moon is Illuminated
Jan 24
Last Quarter
Jan 30
New
Feb 6
First Quarter
Feb 14
Full
Feb 22
Last Quarter

Hourly Weather History & Observations

Time (EST) Temp. Dew Point Humidity Pressure Visibility Wind Dir Wind Speed Gust Speed Precip Events Conditions
12:15 AM - - N/A% 30.36 in 10.0 mi Calm Calm - N/A Rain Light Rain
12:35 AM - - N/A% 30.35 in 10.0 mi Calm Calm - N/A Rain Light Rain
12:55 AM - - N/A% 30.35 in 10.0 mi WNW 3.5 mph - N/A Rain Light Rain
1:15 AM - - N/A% 30.36 in 10.0 mi WNW 5.8 mph - N/A Rain Light Rain
1:35 AM - - N/A% 30.37 in 9.0 mi WNW 9.2 mph - N/A Rain Light Rain
1:55 AM - - N/A% 30.37 in 10.0 mi WNW 8.1 mph - N/A Rain Light Rain
2:15 AM - - N/A% 30.37 in 10.0 mi NW 9.2 mph - N/A Rain Light Rain
2:35 AM - - N/A% 30.38 in 10.0 mi NW 8.1 mph - N/A Rain Light Rain
2:55 AM - - N/A% 30.38 in 10.0 mi NW 10.4 mph - N/A Rain Light Rain
3:15 AM - - N/A% 30.39 in 10.0 mi NW 10.4 mph - N/A Rain Light Rain
3:35 AM - - N/A% 30.41 in 10.0 mi NNW 8.1 mph - N/A Rain Light Rain
3:55 AM - - N/A% 30.42 in 10.0 mi NNW 8.1 mph - N/A Rain Light Rain
4:15 AM - - N/A% 30.43 in 10.0 mi NNW 12.7 mph 19.6 mph N/A Rain Light Rain
4:35 AM - - N/A% 30.43 in 10.0 mi North 9.2 mph 19.6 mph N/A Rain Light Rain
4:55 AM - - N/A% 30.44 in 10.0 mi North 13.8 mph 20.7 mph N/A Rain Light Rain
5:15 AM - - N/A% 30.44 in 10.0 mi North 10.4 mph 18.4 mph N/A Rain Light Rain
5:35 AM - - N/A% 30.46 in 10.0 mi North 5.8 mph 18.4 mph N/A Rain Light Rain
5:55 AM - - N/A% 30.48 in 10.0 mi North 8.1 mph 17.3 mph N/A Rain Light Rain
6:15 AM - - N/A% 30.50 in 10.0 mi North 6.9 mph - N/A Rain Light Rain
6:35 AM - - N/A% 30.51 in 10.0 mi North 5.8 mph - N/A Rain Light Rain
6:55 AM - - N/A% 30.52 in 10.0 mi North 5.8 mph - N/A Rain Light Rain
7:15 AM - - N/A% 30.54 in 10.0 mi North 9.2 mph 20.7 mph N/A Rain Light Rain
7:35 AM - - N/A% 30.55 in 10.0 mi North 9.2 mph 18.4 mph N/A Rain Light Rain
7:55 AM - - N/A% 30.55 in 10.0 mi North 8.1 mph 19.6 mph N/A Rain Light Rain
8:15 AM - - N/A% 30.56 in 10.0 mi North 9.2 mph 16.1 mph N/A Rain Light Rain
8:35 AM - - N/A% 30.57 in 10.0 mi North 12.7 mph 21.9 mph N/A Rain Light Rain
8:55 AM - - N/A% 30.58 in 10.0 mi North 12.7 mph 20.7 mph N/A Rain Light Rain
9:15 AM - - N/A% 30.58 in 10.0 mi North 12.7 mph 17.3 mph N/A Rain Light Rain
9:35 AM - - N/A% 30.59 in 10.0 mi North 12.7 mph 20.7 mph N/A Rain Light Rain
9:55 AM - - N/A% 30.59 in 10.0 mi North 10.4 mph 20.7 mph N/A Rain Light Rain
10:15 AM - - N/A% 30.59 in 10.0 mi NNW 10.4 mph 18.4 mph N/A Rain Light Rain
10:35 AM - - N/A% 30.58 in 10.0 mi North 10.4 mph 17.3 mph N/A Rain Light Rain
10:55 AM - - N/A% 30.59 in 10.0 mi North 11.5 mph 18.4 mph N/A Rain Light Rain
11:15 AM - - N/A% 30.58 in 10.0 mi North 8.1 mph 17.3 mph N/A Rain Light Rain
11:35 AM - - N/A% 30.57 in 10.0 mi NNW 8.1 mph 17.3 mph N/A Rain Light Rain
11:55 AM - - N/A% 30.55 in 10.0 mi North 12.7 mph 17.3 mph N/A Rain Light Rain
12:15 PM - - N/A% 30.54 in 10.0 mi NNW 8.1 mph 16.1 mph N/A Rain Light Rain
12:35 PM - - N/A% 30.53 in 10.0 mi North 3.5 mph 17.3 mph N/A Rain Light Rain
12:55 PM - - N/A% 30.51 in 10.0 mi North 9.2 mph - N/A Rain Light Rain
1:15 PM - - N/A% 30.50 in 10.0 mi North 5.8 mph - N/A Rain Light Rain
1:35 PM - - N/A% 30.48 in 10.0 mi NNW 8.1 mph - N/A Rain Light Rain
1:55 PM - - N/A% 30.47 in 10.0 mi North 11.5 mph 19.6 mph N/A Rain Light Rain
2:15 PM - - N/A% 30.46 in 10.0 mi NNW 10.4 mph 16.1 mph N/A Rain Light Rain
2:35 PM - - N/A% 30.46 in 10.0 mi NNW 10.4 mph 18.4 mph N/A Rain Light Rain
2:55 PM - - N/A% 30.46 in 10.0 mi NNW 13.8 mph 17.3 mph N/A Rain Light Rain
3:15 PM - - N/A% 30.45 in 10.0 mi NNW 13.8 mph - N/A Rain Light Rain
3:35 PM - - N/A% 30.44 in 10.0 mi NNW 8.1 mph - N/A Rain Light Rain
3:55 PM - - N/A% 30.44 in 10.0 mi NNW 6.9 mph - N/A Rain Light Rain
4:15 PM - - N/A% 30.45 in 10.0 mi NW 6.9 mph - N/A Rain Light Rain
4:35 PM - - N/A% 30.45 in 10.0 mi North 5.8 mph - N/A Rain Light Rain
4:55 PM - - N/A% 30.45 in 9.0 mi NNW 8.1 mph - N/A Rain Light Rain
5:15 PM - - N/A% 30.45 in 10.0 mi North 5.8 mph - N/A Rain Light Rain
5:35 PM - - N/A% 30.45 in 10.0 mi NNW 3.5 mph - N/A Rain Light Rain
5:55 PM - - N/A% 30.45 in 10.0 mi Calm Calm - N/A Rain Light Rain
6:15 PM - - N/A% 30.44 in 10.0 mi Calm Calm - N/A Rain Light Rain
6:35 PM - - N/A% 30.44 in 10.0 mi Calm Calm - N/A Rain Light Rain
6:55 PM - - N/A% 30.45 in 10.0 mi Calm Calm - N/A Rain Light Rain
7:15 PM - - N/A% 30.44 in 10.0 mi Calm Calm - N/A   Clear
7:35 PM - - N/A% 30.44 in 10.0 mi Calm Calm - N/A   Clear
7:55 PM - - N/A% 30.43 in 10.0 mi Calm Calm - N/A   Clear
8:15 PM - - N/A% 30.43 in 10.0 mi Calm Calm - N/A   Clear
8:35 PM - - N/A% 30.42 in 10.0 mi Calm Calm - N/A   Clear
8:55 PM - - N/A% 30.42 in 10.0 mi Calm Calm - N/A   Clear
9:15 PM - - N/A% 30.42 in 10.0 mi Calm Calm - N/A   Clear
9:35 PM - - N/A% 30.42 in 10.0 mi Calm Calm - N/A   Clear
9:55 PM - - N/A% 30.41 in 10.0 mi Calm Calm - N/A   Clear
10:15 PM - - N/A% 30.40 in 10.0 mi Calm Calm - N/A   Clear
10:35 PM - - N/A% 30.40 in 10.0 mi Calm Calm - N/A   Clear
10:55 PM - - N/A% 30.40 in 10.0 mi Calm Calm - N/A   Clear
11:15 PM - - N/A% 30.39 in 10.0 mi Calm Calm - N/A   Clear
11:35 PM - - N/A% 30.38 in 10.0 mi Calm Calm - N/A   Clear
11:55 PM - - N/A% 30.36 in 10.0 mi Calm Calm - N/A   Clear